{"data":{"norad_id":53398,"intl_designator":"2022-097L","name":"STARLINK-4512","alt_names":[],"object_type":"PAYLOAD","status":"ACTIVE","operator":null,"country":"US","launch_date":"2022-08-10","launch_site_code":"AFETR","launch_vehicle":null,"mission":null,"orbit_class":"UNKNOWN","rcs_meters":null,"size_class":null,"mass_kg":null,"dimensions":null,"purposes":["comms"],"wikipedia_slug":null,"has_3d_model":false,"image_url":null,"decayed_at":null,"tle_current":{"epoch":"2026-05-24T23:42:28.321056Z","epoch_age_seconds":86223,"freshness":"FRESH","line1":"1 53398U 22097L   26144.98782779  .00004126  00000+0  27733-3 0  9999","line2":"2 53398  53.2147 141.6056 0001402  89.6549 270.4604 15.08816696210032","mean_motion":15.08816696,"eccentricity":0.0001402,"inclination_deg":53.2147,"raan_deg":141.6056,"arg_perigee_deg":89.6549,"mean_anomaly_deg":270.4604,"bstar":0.00027733,"rev_number":21003,"period_min":95.439028731426,"perigee_km":538.84472406876,"apogee_km":540.78451770326,"semimajor_km":6917.951620886,"source":"CELESTRAK","updated_at":"2026-05-25T13:38:17.397345Z"}}}